RADSAT-U (45262 NORAD) Tracking and Keplerian Element Data

This shows tracking and keplerian element data for the satellite.

Feedback or suggestion? Click here.




ElementValue
Catalog45262
NameRADSAT-U
Epoch Orbit681
Epoch Day94.03701509
Epoch Year2020
RAAN0.015
Inclination51.6436
Eccentricity0.0007994
Argument of Perigee114.8773
Mean Anonmoly245.3048
Mean Motion15.50336222
Decay Rate5.425E-05
L11 45262U 98067RF 20094.03701509 .00005425 00000-0 10175-3 0 9992
L22 45262 51.6436 0.0150 0007994 114.8773 245.3048 15.50336222 6812

Live tracking and technical data element details for RADSAT-U (NORAD 45262). RADSAT-U can be tracked NOW for your location showing map with azimuth and elevation plus other details from your city location.

Track the satellite on the map from your city or location and see movement details for azimuth, elevation, latitude, longitude, range, height, and movement on the map or in text.







IsCatalogInMostPopularTable: catalog: 45262, numindb: 10
Update: records affected: 1



GetName: 45262 RADSAT-U

Hit Count: updated at: Tue, 07 Apr 2020 17:40:23 GMT